timestamp,surface_pressure_avg,surface_temp_avg,battery_voltage,lat,long
2021-03-06 00:09:01+00:00,246.7231,0.7,12.49,47.84626,-54.09684
2021-03-06 00:19:01+00:00,251.0331,0.7,12.41,47.84626,-54.09684
2021-03-06 00:29:01+00:00,256.6631,0.7,12.41,47.84626,-54.09684
2021-03-06 00:39:01+00:00,256.3781,0.7,12.41,47.84626,-54.09684
2021-03-06 00:49:01+00:00,255.2981,0.7,12.41,47.84626,-54.09684
2021-03-06 00:59:01+00:00,254.0681,0.7,12.41,47.84626,-54.09684
2021-03-06 01:09:01+00:00,257.0464,0.7,12.41,47.84626,-54.09684
2021-03-06 01:19:01+00:00,258.0831,0.7,12.41,47.84626,-54.09684
2021-03-06 01:29:01+00:00,259.0098,0.7,12.41,47.84626,-54.09684
2021-03-06 01:39:01+00:00,258.5081,0.7,12.41,47.84626,-54.09684
2021-03-06 01:49:01+00:00,265.9681,0.7,12.41,47.84626,-54.09684
2021-03-06 01:59:01+00:00,274.6097,0.7,12.41,47.84626,-54.09684
2021-03-06 02:09:01+00:00,279.868,0.7,12.41,47.84626,-54.09684
2021-03-06 02:19:01+00:00,283.7897,0.7,12.41,47.84626,-54.09684
2021-03-06 02:29:01+00:00,294.168,0.7,12.41,47.84626,-54.09684
2021-03-06 02:39:01+00:00,303.8713,0.71,12.41,47.84626,-54.09684
2021-03-06 02:49:01+00:00,310.173,0.71,12.41,47.84626,-54.09684
2021-03-06 02:59:01+00:00,313.833,0.71,12.41,47.84626,-54.09684
2021-03-06 03:09:01+00:00,322.3047,0.71,12.41,47.84626,-54.09684
2021-03-06 03:19:01+00:00,329.4146,0.7,12.33,47.84626,-54.09684
2021-03-06 03:29:01+00:00,330.36800000000005,0.7,12.33,47.84626,-54.09684
2021-03-06 03:39:01+00:00,330.1797,0.7,12.33,47.84626,-54.09684
2021-03-06 03:49:01+00:00,339.0663,0.7,12.33,47.84626,-54.09684
2021-03-06 03:59:01+00:00,349.0247,0.7,12.33,47.84626,-54.09684
2021-03-06 04:09:01+00:00,345.9562,0.7,12.33,47.84626,-54.09684
2021-03-06 04:19:01+00:00,349.44800000000015,0.7,12.33,47.84626,-54.09684
2021-03-06 04:29:01+00:00,357.783,0.7,12.33,47.84626,-54.09684
2021-03-06 04:39:01+00:00,356.2297,0.7,12.33,47.84626,-54.09684
2021-03-06 04:49:01+00:00,354.2513,0.7,12.33,47.84626,-54.09684
2021-03-06 04:59:01+00:00,354.1779,0.7,12.33,47.84626,-54.09684
2021-03-06 05:09:01+00:00,355.0163,0.7,12.33,47.84626,-54.09684
2021-03-06 05:19:01+00:00,354.0114,0.71,12.33,47.84626,-54.09684
2021-03-06 05:29:01+00:00,357.5146,0.72,12.33,47.84626,-54.09684
2021-03-06 05:39:01+00:00,362.93300000000005,0.74,12.33,47.84626,-54.09684
2021-03-06 05:49:01+00:00,352.3847,0.73,12.33,47.84626,-54.09684
2021-03-06 05:59:01+00:00,350.4747,0.72,12.33,47.84626,-54.09684
2021-03-06 06:09:01+00:00,357.7945,0.71,12.33,47.84626,-54.09684
2021-03-06 06:19:01+00:00,358.8013,0.7,12.33,47.84626,-54.09684
2021-03-06 06:29:01+00:00,342.213,0.7,12.33,47.84626,-54.09684
2021-03-06 06:39:01+00:00,339.3646,0.7,12.33,47.84626,-54.09684
2021-03-06 06:49:01+00:00,351.4595,0.7,12.33,47.84626,-54.09684
2021-03-06 06:59:01+00:00,346.3646,0.7,12.33,47.84626,-54.09684
2021-03-06 07:09:01+00:00,326.3664,0.7,12.33,47.84626,-54.09684
2021-03-06 07:19:01+00:00,322.4763,0.7,12.33,47.84626,-54.09684
2021-03-06 07:29:01+00:00,325.7447,0.7,12.33,47.84626,-54.09684
2021-03-06 07:39:01+00:00,313.153,0.7,12.33,47.84626,-54.09684
2021-03-06 07:49:01+00:00,295.563,0.7,12.33,47.84626,-54.09684
2021-03-06 07:59:01+00:00,295.6063,0.7,12.33,47.84626,-54.09684
2021-03-06 08:09:01+00:00,296.2048,0.7,12.33,47.84626,-54.09684
2021-03-06 08:19:01+00:00,280.7014,0.7,12.33,47.84626,-54.09684
2021-03-06 08:29:01+00:00,265.0297,0.7,12.33,47.84626,-54.09684
2021-03-06 08:39:01+00:00,264.9881,0.7,12.33,47.84626,-54.09684
2021-03-06 08:49:01+00:00,264.4064,0.7,12.33,47.84626,-54.09684
2021-03-06 08:59:01+00:00,251.5914,0.7,12.33,47.84626,-54.09684
2021-03-06 09:09:01+00:00,240.2115,0.7,12.33,47.84626,-54.09684
2021-03-06 09:19:01+00:00,244.2648,0.7,12.33,47.84626,-54.09684
2021-03-06 09:29:01+00:00,240.6831,0.7,12.33,47.84626,-54.09684
2021-03-06 09:39:01+00:00,230.2698,0.6,12.33,47.84626,-54.09684
2021-03-06 09:49:01+00:00,228.1031,0.6,12.33,47.84626,-54.09684
2021-03-06 09:59:01+00:00,230.7331,0.6,12.33,47.84626,-54.09684
2021-03-06 10:09:01+00:00,224.8214,0.58,12.33,47.84626,-54.09684
2021-03-06 10:19:01+00:00,224.4831,0.55,12.33,47.84626,-54.09684
2021-03-06 10:29:01+00:00,231.0631,0.55,12.33,47.84626,-54.09684
2021-03-06 10:39:01+00:00,230.9748,0.57,12.33,47.84626,-54.09684
2021-03-06 10:49:01+00:00,225.7415,0.59,12.33,47.84626,-54.09684
2021-03-06 10:59:01+00:00,231.7448,0.59,12.33,47.84626,-54.09684
2021-03-06 11:09:01+00:00,241.3148,0.6,12.33,47.84626,-54.09684
2021-03-06 11:19:01+00:00,239.4247,0.6,12.33,47.84626,-54.09684
2021-03-06 11:29:01+00:00,234.6648,0.59,12.33,47.84626,-54.09684
2021-03-06 11:39:01+00:00,239.2514,0.57,12.33,47.84626,-54.09684
2021-03-06 11:49:01+00:00,240.4414,0.58,12.33,47.84626,-54.09684
2021-03-06 11:59:01+00:00,232.4047,0.6,12.33,47.84626,-54.09684
2021-03-06 12:09:01+00:00,227.4464,0.6,12.33,47.84626,-54.09684
2021-03-06 12:19:01+00:00,233.6381,0.6,12.41,47.84626,-54.09684
2021-03-06 12:29:01+00:00,237.2047,0.6,12.41,47.84626,-54.09684
2021-03-06 12:39:01+00:00,236.5114,0.64,12.41,47.84626,-54.09684
2021-03-06 12:49:01+00:00,235.8081,0.67,12.41,47.84626,-54.09684
2021-03-06 12:59:01+00:00,238.2897,0.68,12.41,47.84626,-54.09684
2021-03-06 13:09:01+00:00,240.2581,0.69,12.41,47.84626,-54.09684
2021-03-06 13:19:01+00:00,241.0714,0.7,12.81,47.84626,-54.09684
2021-03-06 13:29:01+00:00,240.9731,0.7,12.81,47.84626,-54.09684
2021-03-06 13:39:01+00:00,244.2347,0.7,12.81,47.84626,-54.09684
2021-03-06 13:49:01+00:00,245.3581,0.7,12.81,47.84626,-54.09684
2021-03-06 13:59:01+00:00,247.8297,0.7,12.81,47.84626,-54.09684
2021-03-06 14:09:01+00:00,251.0865,0.72,12.81,47.84626,-54.09684
2021-03-06 14:19:01+00:00,253.4898,0.74,12.89,47.84626,-54.09684
2021-03-06 14:29:01+00:00,255.7831,0.76,12.89,47.84626,-54.09684
2021-03-06 14:39:01+00:00,262.9547,0.78,12.89,47.84626,-54.09684
2021-03-06 14:49:01+00:00,270.9581,0.79,12.89,47.84626,-54.09684
2021-03-06 14:59:01+00:00,273.1948,0.8,12.89,47.84626,-54.09684
2021-03-06 15:09:01+00:00,275.6414,0.8,12.89,47.84626,-54.09684
2021-03-06 15:19:01+00:00,285.6364,0.8,13.05,47.84626,-54.09684
2021-03-06 15:29:01+00:00,292.8846,0.82,13.05,47.84626,-54.09684
2021-03-06 15:39:01+00:00,295.2647,0.84,13.05,47.84626,-54.09684
2021-03-06 15:49:01+00:00,298.953,0.82,13.05,47.84626,-54.09684
2021-03-06 15:59:01+00:00,307.7014,0.83,13.05,47.84626,-54.09684
2021-03-06 16:09:01+00:00,310.2697,0.8,13.05,47.84626,-54.09684
2021-03-06 16:19:01+00:00,309.9564,0.8,13.05,47.84626,-54.09684
2021-03-06 16:29:01+00:00,314.5313,0.8,13.05,47.84626,-54.09684
2021-03-06 16:39:01+00:00,317.3296,0.8,13.05,47.84626,-54.09684
2021-03-06 16:49:01+00:00,316.7063,0.8,13.05,47.84626,-54.09684
2021-03-06 16:59:01+00:00,313.3698,0.8,13.05,47.84626,-54.09684
2021-03-06 17:09:01+00:00,316.8931,0.83,13.05,47.84626,-54.09684
2021-03-06 17:19:01+00:00,319.033,0.85,13.05,47.84626,-54.09684
2021-03-06 17:29:01+00:00,317.4064,0.86,13.05,47.84626,-54.09684
2021-03-06 17:39:01+00:00,314.3279,0.85,13.05,47.84626,-54.09684
2021-03-06 17:49:01+00:00,317.3979,0.85,13.05,47.84626,-54.09684
2021-03-06 17:59:01+00:00,320.5347,0.87,13.05,47.84626,-54.09684
2021-03-06 18:09:01+00:00,316.1463,0.89,13.05,47.84626,-54.09684
2021-03-06 18:19:01+00:00,312.4413,0.9,13.05,47.84626,-54.09684
2021-03-06 18:29:01+00:00,317.4747,0.9,13.05,47.84626,-54.09684
2021-03-06 18:39:01+00:00,318.7847,0.9,13.05,47.84626,-54.09684
2021-03-06 18:49:01+00:00,314.5247,0.9,13.05,47.84626,-54.09684
2021-03-06 18:59:01+00:00,312.9579,0.9,13.05,47.84626,-54.09684
2021-03-06 19:09:01+00:00,319.1229,0.9,13.05,47.84626,-54.09684
2021-03-06 19:19:01+00:00,316.8014,0.9,13.05,47.84626,-54.09684
2021-03-06 19:29:01+00:00,309.3681,0.9,13.05,47.84626,-54.09684
2021-03-06 19:39:01+00:00,303.683,0.9,13.05,47.84626,-54.09684
2021-03-06 19:49:01+00:00,301.5646,0.9,13.05,47.84626,-54.09684
2021-03-06 19:59:01+00:00,292.9681,0.9,13.05,47.84626,-54.09684
2021-03-06 20:09:01+00:00,281.8531,0.9,13.05,47.84626,-54.09684
2021-03-06 20:19:01+00:00,278.168,0.9,12.89,47.84626,-54.09684
2021-03-06 20:29:01+00:00,275.5948,0.9,12.89,47.84626,-54.09684
2021-03-06 20:39:01+00:00,266.4197,0.9,12.89,47.84626,-54.09684
2021-03-06 20:49:01+00:00,255.6231,0.9,12.89,47.84626,-54.09684
2021-03-06 20:59:01+00:00,251.2547,0.9,12.89,47.84626,-54.09684
2021-03-06 21:09:01+00:00,247.1281,0.9,12.89,47.84626,-54.09684
2021-03-06 21:19:01+00:00,241.3031,0.89,12.81,47.84626,-54.09684
2021-03-06 21:29:01+00:00,234.9081,0.85,12.81,47.84626,-54.09684
2021-03-06 21:39:01+00:00,229.8665,0.8,12.81,47.84626,-54.09684
2021-03-06 21:49:01+00:00,227.5497,0.8,12.81,47.84626,-54.09684
2021-03-06 21:59:01+00:00,223.2714,0.8,12.81,47.84626,-54.09684
2021-03-06 22:09:01+00:00,221.6964,0.8,12.81,47.84626,-54.09684
2021-03-06 22:19:01+00:00,219.8315,0.8,12.73,47.84626,-54.09684
2021-03-06 22:29:01+00:00,219.0748,0.8,12.73,47.84626,-54.09684
2021-03-06 22:39:01+00:00,219.1465,0.78,12.73,47.84626,-54.09684
2021-03-06 22:49:01+00:00,219.2231,0.7,12.73,47.84626,-54.09684
2021-03-06 22:59:01+00:00,218.0631,0.7,12.73,47.84626,-54.09684
2021-03-06 23:09:01+00:00,219.2381,0.7,12.73,47.84626,-54.09684
2021-03-06 23:19:01+00:00,221.4731,0.7,12.65,47.84626,-54.09684
2021-03-06 23:29:01+00:00,219.7314,0.72,12.65,47.84626,-54.09684
2021-03-06 23:39:01+00:00,222.3931,0.73,12.65,47.84626,-54.09684
2021-03-06 23:49:01+00:00,227.8531,0.7,12.65,47.84626,-54.09684
2021-03-06 23:59:01+00:00,226.0365,0.7,12.65,47.84626,-54.09684
